Zurück zum Katalog

NOAA 16 DEB

AktivSSO
NORAD 41055·DEBRIS·🇺🇸 United States

Gestartet Sep 21, 2000 von Vandenberg Space Force Base

Loading…

Nächste Überflüge (nächste 24 Stunden)

TLE

AktuellSource: Space-Track

Epoche: Sep 14, 2026, 06:10 UTC

1 41055U 00055N   26257.25717024  .00002709  00000-0  93251-3 0  9996
2 41055  98.7971  14.1442 0012848 298.3931  61.5959 14.36779552560377

Verfolge NOAA 16 DEB in Echtzeit mit AllMySat

Download on the App Store